DAL518 KATL-KBOS

Flight info

Callsign DAL518
Flight time 2h 15m
Altitude 35000
Route PLMMR3 BURGG Q22 RBV Q419 JFK ROBUC3
Aircraft A321/M-SDE3FGHIRWY/LB1

Departure

Time 2026-05-05 00:23
Airport Hartsfield Jackson Atlanta International Airport (KATL)

Arrival

Time 2026-05-05 02:38
Airport Boston Logan International Airport (KBOS)
Time Latitude Longitude Altitude Speed Heading
2026-05-04 23:37 33.63877 -84.43643 1036 ft 0 kts 90°
2026-05-05 00:11 33.63877 -84.43669 1035 ft 3 kts 92°
2026-05-05 00:11 33.63880 -84.43696 1035 ft 3 kts 114°
2026-05-05 00:12 33.63893 -84.43717 1035 ft 3 kts 153°
2026-05-05 00:12 33.63908 -84.43723 1035 ft 0 kts 180°
2026-05-05 00:14 33.63901 -84.43723 1035 ft 3 kts 180°
2026-05-05 00:15 33.63861 -84.43723 1035 ft 9 kts 180°
2026-05-05 00:15 33.63781 -84.43723 1035 ft 14 kts 180°
2026-05-05 00:15 33.63697 -84.43721 1035 ft 11 kts 170°
2026-05-05 00:15 33.63665 -84.43632 1035 ft 15 kts 89°
2026-05-05 00:16 33.63665 -84.43505 1035 ft 15 kts 90°
2026-05-05 00:16 33.63665 -84.43386 1035 ft 14 kts 90°
2026-05-05 00:16 33.63665 -84.43314 1035 ft 13 kts 90°
2026-05-05 00:16 33.63664 -84.43215 1035 ft 11 kts 90°
2026-05-05 00:17 33.63664 -84.43119 1035 ft 12 kts 89°
2026-05-05 00:17 33.63666 -84.43002 1035 ft 16 kts 89°
2026-05-05 00:17 33.63667 -84.42858 1035 ft 19 kts 89°
2026-05-05 00:17 33.63658 -84.42704 1036 ft 20 kts 96°
2026-05-05 00:18 33.63656 -84.42531 1036 ft 21 kts 90°
2026-05-05 00:18 33.63657 -84.42360 1036 ft 20 kts 90°
2026-05-05 00:18 33.63657 -84.42201 1036 ft 18 kts 90°
2026-05-05 00:18 33.63656 -84.42056 1036 ft 17 kts 90°
2026-05-05 00:19 33.63657 -84.41918 1035 ft 16 kts 90°
2026-05-05 00:19 33.63657 -84.41790 1035 ft 15 kts 90°
2026-05-05 00:19 33.63656 -84.41659 1035 ft 16 kts 90°
2026-05-05 00:19 33.63656 -84.41525 1035 ft 16 kts 90°
2026-05-05 00:20 33.63656 -84.41385 1035 ft 17 kts 90°
2026-05-05 00:20 33.63657 -84.41241 1035 ft 17 kts 90°
2026-05-05 00:20 33.63657 -84.41095 1035 ft 18 kts 90°
2026-05-05 00:20 33.63657 -84.40979 1035 ft 11 kts 90°
2026-05-05 00:21 33.63635 -84.40918 1035 ft 8 kts 155°
2026-05-05 00:21 33.63577 -84.40911 1035 ft 9 kts 175°
2026-05-05 00:21 33.63516 -84.40906 1036 ft 9 kts 178°
2026-05-05 00:21 33.63473 -84.40940 1036 ft 8 kts 257°
2026-05-05 00:22 33.63471 -84.41013 1035 ft 11 kts 269°
2026-05-05 00:22 33.63473 -84.41262 1034 ft 62 kts 270°
2026-05-05 00:22 33.63465 -84.42028 1036 ft 119 kts 270°
2026-05-05 00:22 33.63469 -84.43214 1035 ft 163 kts 270°
2026-05-05 00:23 33.63481 -84.44672 1340 ft 174 kts 269°
2026-05-05 00:23 33.63498 -84.46074 2088 ft 166 kts 266°
2026-05-05 00:23 33.63459 -84.47450 2675 ft 165 kts 253°
2026-05-05 00:23 33.62967 -84.48751 2920 ft 181 kts 238°
2026-05-05 00:24 33.62342 -84.50142 3052 ft 198 kts 240°
2026-05-05 00:24 33.61672 -84.51680 3175 ft 218 kts 240°
2026-05-05 00:24 33.60938 -84.53390 3313 ft 243 kts 240°
2026-05-05 00:24 33.60143 -84.55263 3763 ft 256 kts 241°
2026-05-05 00:25 33.59249 -84.57129 4430 ft 259 kts 227°
2026-05-05 00:25 33.57775 -84.58316 5098 ft 260 kts 195°
2026-05-05 00:25 33.55970 -84.58522 5773 ft 263 kts 181°
2026-05-05 00:25 33.54126 -84.58532 6477 ft 266 kts 181°
2026-05-05 00:26 33.52260 -84.58515 7138 ft 269 kts 181°
2026-05-05 00:26 33.50400 -84.58494 7777 ft 272 kts 181°
2026-05-05 00:26 33.48499 -84.58299 8402 ft 278 kts 165°
2026-05-05 00:26 33.46815 -84.57129 8991 ft 287 kts 135°
2026-05-05 00:27 33.45808 -84.55048 9584 ft 297 kts 104°
2026-05-05 00:27 33.45644 -84.52563 10153 ft 302 kts 91°
2026-05-05 00:27 33.45636 -84.49945 10418 ft 320 kts 91°
2026-05-05 00:27 33.45634 -84.47226 10543 ft 340 kts 91°
2026-05-05 00:28 33.45629 -84.44311 10662 ft 360 kts 91°
2026-05-05 00:28 33.45620 -84.41245 10899 ft 374 kts 91°
2026-05-05 00:28 33.45679 -84.38112 11392 ft 379 kts 84°
2026-05-05 00:28 33.46236 -84.35009 11979 ft 384 kts 71°
2026-05-05 00:29 33.47346 -84.32094 12551 ft 387 kts 59°
2026-05-05 00:29 33.48967 -84.29505 13122 ft 390 kts 46°
2026-05-05 00:29 33.50873 -84.27182 13702 ft 392 kts 44°
2026-05-05 00:29 33.52797 -84.24850 14228 ft 394 kts 45°
2026-05-05 00:30 33.54734 -84.22495 14704 ft 398 kts 44°
2026-05-05 00:30 33.56685 -84.20121 15174 ft 402 kts 44°
2026-05-05 00:30 33.58654 -84.17723 15637 ft 405 kts 44°
2026-05-05 00:30 33.60639 -84.15303 16075 ft 409 kts 44°
2026-05-05 00:31 33.62640 -84.12853 16539 ft 412 kts 44°
2026-05-05 00:31 33.64654 -84.10384 16998 ft 416 kts 44°
2026-05-05 00:31 33.66689 -84.07890 17445 ft 419 kts 44°
2026-05-05 00:31 33.68739 -84.05381 17882 ft 423 kts 44°
2026-05-05 00:32 33.70809 -84.02850 18315 ft 426 kts 44°
2026-05-05 00:32 33.72897 -84.00293 18713 ft 429 kts 44°
2026-05-05 00:32 33.74990 -83.97724 19105 ft 431 kts 44°
2026-05-05 00:32 33.77092 -83.95134 19510 ft 434 kts 44°
2026-05-05 00:33 33.79204 -83.92530 19908 ft 436 kts 44°
2026-05-05 00:33 33.81332 -83.89916 20313 ft 438 kts 44°
2026-05-05 00:33 33.83466 -83.87285 20708 ft 440 kts 44°
2026-05-05 00:33 33.85607 -83.84643 21095 ft 442 kts 44°
2026-05-05 00:34 33.87759 -83.81982 21482 ft 445 kts 44°
2026-05-05 00:34 33.89905 -83.79343 21879 ft 447 kts 43°
2026-05-05 00:34 33.92083 -83.76657 22276 ft 449 kts 43°
2026-05-05 00:34 33.94270 -83.73956 22648 ft 451 kts 44°
2026-05-05 00:35 33.96309 -83.71059 23018 ft 455 kts 51°
2026-05-05 00:35 33.98196 -83.67983 23380 ft 458 kts 51°
2026-05-05 00:35 34.00090 -83.64889 23719 ft 460 kts 51°
2026-05-05 00:35 34.02000 -83.61784 24022 ft 462 kts 51°
2026-05-05 00:36 34.03924 -83.58662 24316 ft 464 kts 51°
2026-05-05 00:36 34.05852 -83.55529 24598 ft 466 kts 51°
2026-05-05 00:36 34.07784 -83.52376 24892 ft 469 kts 51°
2026-05-05 00:36 34.09721 -83.49203 25166 ft 471 kts 51°
2026-05-05 00:37 34.11666 -83.46009 25450 ft 472 kts 51°
2026-05-05 00:37 34.13618 -83.42800 25719 ft 475 kts 51°
2026-05-05 00:37 34.15580 -83.39576 26007 ft 477 kts 51°
2026-05-05 00:37 34.17555 -83.36336 26274 ft 479 kts 51°
2026-05-05 00:38 34.19540 -83.33090 26531 ft 481 kts 51°
2026-05-05 00:38 34.21505 -83.29881 26796 ft 483 kts 51°
2026-05-05 00:38 34.23509 -83.26603 27059 ft 485 kts 51°
2026-05-05 00:38 34.25507 -83.23306 27317 ft 487 kts 51°
2026-05-05 00:39 34.27509 -83.19993 27582 ft 489 kts 51°
2026-05-05 00:39 34.29517 -83.16671 27843 ft 491 kts 51°
2026-05-05 00:39 34.31537 -83.13333 28082 ft 493 kts 51°
2026-05-05 00:39 34.33579 -83.09985 28355 ft 494 kts 51°
2026-05-05 00:40 34.35624 -83.06650 28715 ft 493 kts 51°
2026-05-05 00:40 34.37671 -83.03313 29058 ft 493 kts 51°
2026-05-05 00:40 34.39712 -82.99984 29403 ft 493 kts 51°
2026-05-05 00:40 34.41756 -82.96649 29732 ft 492 kts 51°
2026-05-05 00:41 34.43793 -82.93323 30051 ft 492 kts 51°
2026-05-05 00:41 34.45829 -82.89987 30356 ft 492 kts 51°
2026-05-05 00:41 34.47854 -82.86660 30641 ft 489 kts 51°
2026-05-05 00:41 34.49869 -82.83336 30905 ft 489 kts 51°
2026-05-05 00:42 34.51862 -82.80046 31189 ft 489 kts 51°
2026-05-05 00:42 34.53875 -82.76725 31538 ft 487 kts 51°
2026-05-05 00:42 34.55881 -82.73413 31854 ft 486 kts 51°
2026-05-05 00:42 34.57885 -82.70105 32155 ft 486 kts 51°
2026-05-05 00:43 34.59885 -82.66802 32428 ft 486 kts 51°
2026-05-05 00:43 34.61885 -82.63496 32729 ft 485 kts 51°
2026-05-05 00:43 34.63883 -82.60194 33010 ft 484 kts 51°
2026-05-05 00:43 34.65877 -82.56892 33266 ft 484 kts 51°
2026-05-05 00:44 34.67862 -82.53588 33535 ft 484 kts 51°
2026-05-05 00:44 34.69830 -82.50263 33813 ft 484 kts 52°
2026-05-05 00:44 34.71789 -82.46923 34096 ft 484 kts 52°
2026-05-05 00:44 34.73739 -82.43585 34314 ft 484 kts 52°
2026-05-05 00:45 34.75686 -82.40246 34547 ft 484 kts 52°
2026-05-05 00:45 34.77630 -82.36903 34703 ft 485 kts 51°
2026-05-05 00:45 34.79590 -82.33535 34868 ft 486 kts 51°
2026-05-05 00:45 34.81521 -82.30224 35018 ft 487 kts 51°
2026-05-05 00:46 34.83483 -82.26867 35056 ft 486 kts 51°
2026-05-05 00:46 34.87401 -82.20174 35047 ft 484 kts 51°
2026-05-05 00:47 34.91307 -82.13476 35044 ft 484 kts 51°
2026-05-05 00:47 34.95197 -82.06777 35043 ft 484 kts 51°
2026-05-05 00:48 34.99086 -82.00077 35059 ft 484 kts 51°
2026-05-05 00:48 35.02981 -81.93358 35043 ft 485 kts 51°
2026-05-05 00:49 35.06957 -81.86700 35034 ft 484 kts 49°
2026-05-05 00:49 35.11073 -81.80178 35022 ft 484 kts 49°
2026-05-05 00:50 35.15188 -81.73650 35010 ft 485 kts 49°
2026-05-05 00:50 35.19259 -81.67064 35043 ft 485 kts 49°
2026-05-05 00:51 35.23312 -81.60456 35059 ft 486 kts 49°
2026-05-05 00:51 35.27380 -81.53855 35013 ft 486 kts 49°
2026-05-05 00:52 35.31420 -81.47272 35020 ft 486 kts 49°
2026-05-05 00:52 35.35480 -81.40644 35024 ft 486 kts 49°
2026-05-05 00:53 35.39530 -81.34014 35028 ft 486 kts 49°
2026-05-05 00:53 35.43583 -81.27372 35024 ft 486 kts 49°
2026-05-05 00:54 35.47632 -81.20743 35019 ft 486 kts 49°
2026-05-05 00:54 35.51679 -81.14115 35007 ft 489 kts 49°
2026-05-05 00:55 35.55759 -81.07392 35007 ft 491 kts 50°
2026-05-05 00:55 35.59844 -81.00646 34999 ft 492 kts 50°
2026-05-05 00:56 35.63935 -80.93886 35009 ft 493 kts 50°
2026-05-05 00:56 35.68032 -80.87105 35023 ft 493 kts 50°
2026-05-05 00:57 35.72108 -80.80346 35017 ft 494 kts 50°
2026-05-05 00:57 35.76203 -80.73537 35010 ft 494 kts 50°
2026-05-05 00:58 35.79599 -80.67880 35002 ft 494 kts 50°
2026-05-05 00:58 35.84339 -80.59950 35009 ft 494 kts 50°
2026-05-05 00:59 35.87757 -80.54255 35011 ft 493 kts 50°
2026-05-05 00:59 35.91830 -80.47433 34993 ft 493 kts 50°
2026-05-05 01:00 35.95894 -80.40591 34967 ft 493 kts 50°
2026-05-05 01:00 35.99952 -80.33770 34984 ft 493 kts 50°
2026-05-05 01:01 36.02369 -80.29738 34989 ft 493 kts 50°
2026-05-05 01:01 36.04823 -80.25631 34987 ft 493 kts 50°
2026-05-05 01:02 36.08885 -80.18792 34974 ft 494 kts 50°
2026-05-05 01:02 36.12915 -80.11980 34992 ft 493 kts 50°
2026-05-05 01:03 36.15085 -80.08317 34995 ft 493 kts 50°
2026-05-05 01:03 36.19135 -80.01459 35025 ft 494 kts 50°
2026-05-05 01:04 36.23182 -79.94585 35018 ft 493 kts 50°
2026-05-05 01:04 36.29256 -79.84276 35013 ft 494 kts 50°
2026-05-05 01:05 36.33303 -79.77392 35032 ft 494 kts 50°
2026-05-05 01:05 36.37351 -79.70494 35027 ft 494 kts 50°
2026-05-05 01:06 36.41378 -79.63597 34987 ft 494 kts 50°
2026-05-05 01:06 36.45415 -79.56672 34986 ft 494 kts 50°
2026-05-05 01:07 36.49421 -79.49800 34985 ft 494 kts 50°
2026-05-05 01:07 36.53447 -79.42876 34998 ft 494 kts 50°
2026-05-05 01:08 36.57459 -79.35950 35032 ft 493 kts 50°
2026-05-05 01:08 36.61474 -79.29013 35028 ft 493 kts 50°
2026-05-05 01:09 36.65484 -79.22090 35021 ft 493 kts 50°
2026-05-05 01:09 36.69485 -79.15153 35012 ft 493 kts 50°
2026-05-05 01:10 36.73483 -79.08190 35021 ft 493 kts 50°
2026-05-05 01:10 36.77470 -79.01229 35012 ft 492 kts 50°
2026-05-05 01:11 36.81441 -78.94303 35013 ft 495 kts 50°
2026-05-05 01:11 36.85442 -78.87312 35007 ft 494 kts 51°
2026-05-05 01:12 36.89402 -78.80312 35007 ft 493 kts 51°
2026-05-05 01:12 36.93348 -78.73311 35009 ft 492 kts 51°
2026-05-05 01:13 36.97287 -78.66319 35029 ft 491 kts 51°
2026-05-05 01:13 37.01213 -78.59339 35008 ft 490 kts 51°
2026-05-05 01:14 37.05137 -78.52363 34998 ft 489 kts 51°
2026-05-05 01:14 37.09054 -78.45385 34998 ft 489 kts 51°
2026-05-05 01:15 37.12954 -78.38409 34995 ft 489 kts 51°
2026-05-05 01:15 37.16859 -78.31415 35012 ft 488 kts 51°
2026-05-05 01:16 37.20653 -78.24345 35003 ft 491 kts 57°
2026-05-05 01:16 37.23975 -78.16851 35004 ft 491 kts 57°
2026-05-05 01:17 37.27278 -78.09419 34995 ft 491 kts 57°
2026-05-05 01:17 37.30604 -78.01925 34990 ft 490 kts 57°
2026-05-05 01:18 37.33921 -77.94431 35008 ft 490 kts 58°
2026-05-05 01:18 37.37219 -77.86945 35005 ft 489 kts 58°
2026-05-05 01:19 37.40510 -77.79444 35005 ft 489 kts 58°
2026-05-05 01:19 37.43801 -77.71953 35002 ft 489 kts 58°
2026-05-05 01:20 37.47065 -77.64509 34998 ft 489 kts 58°
2026-05-05 01:20 37.50334 -77.57009 35000 ft 488 kts 58°
2026-05-05 01:21 37.53602 -77.49506 35019 ft 488 kts 59°
2026-05-05 01:21 37.56867 -77.42003 35004 ft 487 kts 59°
2026-05-05 01:22 37.60118 -77.34492 34995 ft 487 kts 59°
2026-05-05 01:22 37.63359 -77.26988 34994 ft 487 kts 59°
2026-05-05 01:23 37.66600 -77.19503 34987 ft 486 kts 56°
2026-05-05 01:23 37.70791 -77.13024 34982 ft 476 kts 37°
2026-05-05 01:24 37.76241 -77.08452 34977 ft 468 kts 24°
2026-05-05 01:24 37.81962 -77.04514 34977 ft 469 kts 24°
2026-05-05 01:25 37.87684 -77.00551 34979 ft 469 kts 24°
2026-05-05 01:25 37.93402 -76.96572 34990 ft 469 kts 25°
2026-05-05 01:26 37.99126 -76.92584 34964 ft 470 kts 25°
2026-05-05 01:26 38.04860 -76.88585 34956 ft 470 kts 25°
2026-05-05 01:27 38.10610 -76.84584 34957 ft 470 kts 25°
2026-05-05 01:27 38.16348 -76.80584 34978 ft 470 kts 25°
2026-05-05 01:28 38.22038 -76.76590 34969 ft 470 kts 25°
2026-05-05 01:28 38.27408 -76.71773 34962 ft 475 kts 37°
2026-05-05 01:29 38.32443 -76.66322 34962 ft 475 kts 37°
2026-05-05 01:29 38.37484 -76.60863 34980 ft 475 kts 38°
2026-05-05 01:30 38.42512 -76.55399 34978 ft 475 kts 37°
2026-05-05 01:30 38.47558 -76.49962 34977 ft 474 kts 37°
2026-05-05 01:31 38.52616 -76.44550 34974 ft 474 kts 37°
2026-05-05 01:31 38.57673 -76.39129 34984 ft 474 kts 37°
2026-05-05 01:32 38.62725 -76.33690 34986 ft 474 kts 37°
2026-05-05 01:32 38.67761 -76.28244 34973 ft 474 kts 37°
2026-05-05 01:33 38.72775 -76.22822 34973 ft 474 kts 37°
2026-05-05 01:33 38.77807 -76.17371 34979 ft 473 kts 38°
2026-05-05 01:34 38.82829 -76.11906 34978 ft 473 kts 38°
2026-05-05 01:34 38.87848 -76.06445 34976 ft 472 kts 38°
2026-05-05 01:35 38.92856 -76.00987 34967 ft 472 kts 38°
2026-05-05 01:35 38.94402 -75.99299 34965 ft 472 kts 38°
2026-05-05 01:36 38.94946 -75.98704 34966 ft 472 kts 38°
2026-05-05 01:36 38.96903 -75.96549 34974 ft 472 kts 39°
2026-05-05 01:37 39.01023 -75.91772 34958 ft 472 kts 40°
2026-05-05 01:37 39.05807 -75.85961 34953 ft 472 kts 41°
2026-05-05 01:38 39.10586 -75.80154 34947 ft 472 kts 40°
2026-05-05 01:38 39.15405 -75.74395 34955 ft 472 kts 40°
2026-05-05 01:39 39.20224 -75.68646 34958 ft 471 kts 40°
2026-05-05 01:39 39.25031 -75.62883 34950 ft 471 kts 40°
2026-05-05 01:40 39.29794 -75.57156 34940 ft 470 kts 40°
2026-05-05 01:40 39.34581 -75.51389 34952 ft 470 kts 40°
2026-05-05 01:41 39.39363 -75.45617 34951 ft 470 kts 40°
2026-05-05 01:41 39.43367 -75.40778 34949 ft 470 kts 40°
2026-05-05 01:42 39.48112 -75.35028 34947 ft 469 kts 40°
2026-05-05 01:42 39.52884 -75.29237 34944 ft 469 kts 40°
2026-05-05 01:43 39.57650 -75.23444 34952 ft 469 kts 40°
2026-05-05 01:43 39.62400 -75.17643 34948 ft 469 kts 40°
2026-05-05 01:44 39.67123 -75.11881 34943 ft 468 kts 40°
2026-05-05 01:44 39.71956 -75.06216 34948 ft 467 kts 38°
2026-05-05 01:45 39.76908 -75.00738 34940 ft 467 kts 37°
2026-05-05 01:45 39.81862 -74.95270 34949 ft 467 kts 38°
2026-05-05 01:46 39.86772 -74.89730 34951 ft 467 kts 38°
2026-05-05 01:46 39.91795 -74.84377 34969 ft 465 kts 32°
2026-05-05 01:47 39.97069 -74.79517 34965 ft 464 kts 32°
2026-05-05 01:47 40.02036 -74.74109 34960 ft 469 kts 46°
2026-05-05 01:48 40.06301 -74.67664 34968 ft 469 kts 46°
2026-05-05 01:48 40.10521 -74.61222 34949 ft 469 kts 46°
2026-05-05 01:49 40.14758 -74.54732 34938 ft 469 kts 46°
2026-05-05 01:49 40.18998 -74.48246 34943 ft 469 kts 46°
2026-05-05 01:50 40.23236 -74.41746 34960 ft 469 kts 46°
2026-05-05 01:50 40.27461 -74.35238 34971 ft 469 kts 46°
2026-05-05 01:51 40.31686 -74.28737 34980 ft 468 kts 46°
2026-05-05 01:51 40.35877 -74.22284 34970 ft 466 kts 46°
2026-05-05 01:52 40.40078 -74.15791 34961 ft 466 kts 46°
2026-05-05 01:52 40.44267 -74.09294 34941 ft 466 kts 46°
2026-05-05 01:53 40.48452 -74.02781 34960 ft 465 kts 46°
2026-05-05 01:53 40.52624 -73.96279 34965 ft 465 kts 46°
2026-05-05 01:54 40.56792 -73.89766 34963 ft 462 kts 46°
2026-05-05 01:54 40.58834 -73.86567 34925 ft 450 kts 46°
2026-05-05 01:54 40.60813 -73.83461 34765 ft 439 kts 46°
2026-05-05 01:55 40.62765 -73.80405 34403 ft 433 kts 45°
2026-05-05 01:55 40.64696 -73.77382 34016 ft 428 kts 45°
2026-05-05 01:55 40.66596 -73.74398 33565 ft 423 kts 46°
2026-05-05 01:55 40.68478 -73.71450 32942 ft 433 kts 46°
2026-05-05 01:56 40.70444 -73.68377 32221 ft 441 kts 46°
2026-05-05 01:56 40.72425 -73.65271 31512 ft 443 kts 46°
2026-05-05 01:56 40.74403 -73.62160 30829 ft 443 kts 46°
2026-05-05 01:56 40.76386 -73.59041 30154 ft 444 kts 46°
2026-05-05 01:57 40.78385 -73.55921 29379 ft 444 kts 46°
2026-05-05 01:57 40.80386 -73.52806 28635 ft 445 kts 46°
2026-05-05 01:57 40.82214 -73.49507 27986 ft 447 kts 56°
2026-05-05 01:57 40.83819 -73.45999 27578 ft 446 kts 55°
2026-05-05 01:58 40.85434 -73.42503 27183 ft 445 kts 55°
2026-05-05 01:58 40.87052 -73.39024 26793 ft 443 kts 55°
2026-05-05 01:58 40.88664 -73.35561 26403 ft 441 kts 55°
2026-05-05 01:58 40.90262 -73.32108 26029 ft 439 kts 55°
2026-05-05 01:59 40.91849 -73.28668 25663 ft 437 kts 55°
2026-05-05 01:59 40.93420 -73.25248 25293 ft 435 kts 56°
2026-05-05 01:59 40.94984 -73.21834 24931 ft 432 kts 56°
2026-05-05 01:59 40.96538 -73.18432 24589 ft 431 kts 55°
2026-05-05 02:00 40.98068 -73.15077 24241 ft 430 kts 56°
2026-05-05 02:00 40.99604 -73.11698 23877 ft 428 kts 56°
2026-05-05 02:00 41.01138 -73.08328 23544 ft 425 kts 56°
2026-05-05 02:00 41.02664 -73.04983 23131 ft 424 kts 55°
2026-05-05 02:01 41.04190 -73.01643 22721 ft 422 kts 56°
2026-05-05 02:01 41.05704 -72.98315 22315 ft 420 kts 56°
2026-05-05 02:01 41.07207 -72.95004 21920 ft 419 kts 56°
2026-05-05 02:01 41.08709 -72.91702 21510 ft 417 kts 56°
2026-05-05 02:02 41.10205 -72.88413 21131 ft 415 kts 56°
2026-05-05 02:02 41.11694 -72.85135 20768 ft 414 kts 56°
2026-05-05 02:02 41.13179 -72.81863 20585 ft 413 kts 56°
2026-05-05 02:02 41.14662 -72.78591 20433 ft 413 kts 56°
2026-05-05 02:03 41.16137 -72.75332 20280 ft 412 kts 56°
2026-05-05 02:03 41.17609 -72.72076 20129 ft 411 kts 56°
2026-05-05 02:03 41.19081 -72.68821 19980 ft 411 kts 56°
2026-05-05 02:03 41.20530 -72.65605 19830 ft 410 kts 56°
2026-05-05 02:04 41.21992 -72.62351 19691 ft 410 kts 56°
2026-05-05 02:04 41.23456 -72.59096 19549 ft 409 kts 56°
2026-05-05 02:04 41.24913 -72.55855 19404 ft 409 kts 56°
2026-05-05 02:04 41.26367 -72.52614 19261 ft 408 kts 56°
2026-05-05 02:05 41.27818 -72.49368 19131 ft 408 kts 56°
2026-05-05 02:05 41.29268 -72.46128 18989 ft 408 kts 56°
2026-05-05 02:05 41.30714 -72.42893 18836 ft 407 kts 56°
2026-05-05 02:05 41.32159 -72.39657 18693 ft 406 kts 57°
2026-05-05 02:06 41.33598 -72.36428 18553 ft 405 kts 57°
2026-05-05 02:06 41.35036 -72.33198 18418 ft 405 kts 57°
2026-05-05 02:06 41.36471 -72.29973 18275 ft 405 kts 57°
2026-05-05 02:06 41.37905 -72.26746 18116 ft 404 kts 57°
2026-05-05 02:07 41.39336 -72.23525 17954 ft 403 kts 57°
2026-05-05 02:07 41.40763 -72.20312 17783 ft 402 kts 57°
2026-05-05 02:07 41.42186 -72.17105 17645 ft 401 kts 57°
2026-05-05 02:07 41.43601 -72.13909 17488 ft 400 kts 57°
2026-05-05 02:08 41.45010 -72.10715 17328 ft 399 kts 57°
2026-05-05 02:08 41.46415 -72.07522 17169 ft 398 kts 57°
2026-05-05 02:08 41.47820 -72.04335 17011 ft 397 kts 57°
2026-05-05 02:08 41.49201 -72.01202 16832 ft 396 kts 57°
2026-05-05 02:09 41.50596 -71.98040 16674 ft 395 kts 57°
2026-05-05 02:09 41.51989 -71.94889 16519 ft 394 kts 57°
2026-05-05 02:09 41.53380 -71.91733 16372 ft 393 kts 57°
2026-05-05 02:09 41.54761 -71.88590 16207 ft 392 kts 57°
2026-05-05 02:10 41.56134 -71.85458 16054 ft 391 kts 57°
2026-05-05 02:10 41.57502 -71.82329 15918 ft 390 kts 57°
2026-05-05 02:10 41.58867 -71.79204 15768 ft 389 kts 57°
2026-05-05 02:10 41.60231 -71.76087 15614 ft 388 kts 57°
2026-05-05 02:11 41.61593 -71.72980 15460 ft 387 kts 57°
2026-05-05 02:11 41.62937 -71.69909 15311 ft 377 kts 57°
2026-05-05 02:11 41.64238 -71.66927 15156 ft 366 kts 57°
2026-05-05 02:11 41.65494 -71.64030 15038 ft 354 kts 57°
2026-05-05 02:12 41.66719 -71.61207 15064 ft 349 kts 57°
2026-05-05 02:12 41.68815 -71.55362 14964 ft 351 kts 66°
2026-05-05 02:12 41.69699 -71.52321 14726 ft 350 kts 66°
2026-05-05 02:13 41.70582 -71.49290 14484 ft 349 kts 66°
2026-05-05 02:13 41.71463 -71.46264 14248 ft 348 kts 66°
2026-05-05 02:13 41.72363 -71.43270 14010 ft 345 kts 62°
2026-05-05 02:13 41.73518 -71.40470 13771 ft 342 kts 57°
2026-05-05 02:14 41.74704 -71.37711 13505 ft 341 kts 57°
2026-05-05 02:14 41.75884 -71.34964 13238 ft 339 kts 57°
2026-05-05 02:14 41.77054 -71.32232 12972 ft 337 kts 57°
2026-05-05 02:14 41.78203 -71.29546 12709 ft 336 kts 58°
2026-05-05 02:15 41.79371 -71.26805 12444 ft 333 kts 58°
2026-05-05 02:15 41.80514 -71.24113 12178 ft 331 kts 58°
2026-05-05 02:15 41.81643 -71.21450 11926 ft 325 kts 58°
2026-05-05 02:15 41.82746 -71.18842 11671 ft 319 kts 58°
2026-05-05 02:16 41.83837 -71.16272 11422 ft 315 kts 58°
2026-05-05 02:16 41.84921 -71.13734 11181 ft 312 kts 58°
2026-05-05 02:16 41.86000 -71.11207 11051 ft 311 kts 58°
2026-05-05 02:16 41.87087 -71.08695 11052 ft 311 kts 58°
2026-05-05 02:17 41.88179 -71.06185 11051 ft 311 kts 57°
2026-05-05 02:17 41.89271 -71.03672 11052 ft 311 kts 57°
2026-05-05 02:17 41.90357 -71.01162 11053 ft 312 kts 57°
2026-05-05 02:17 41.91446 -70.98641 10999 ft 313 kts 58°
2026-05-05 02:18 41.92517 -70.96156 10762 ft 311 kts 58°
2026-05-05 02:18 41.93594 -70.93648 10555 ft 309 kts 58°
2026-05-05 02:18 41.94680 -70.91120 10333 ft 308 kts 58°
2026-05-05 02:18 41.95734 -70.88670 10124 ft 306 kts 58°
2026-05-05 02:19 41.96795 -70.86196 9891 ft 304 kts 58°
2026-05-05 02:19 41.97847 -70.83744 9661 ft 302 kts 58°
2026-05-05 02:19 41.98895 -70.81300 9426 ft 302 kts 58°
2026-05-05 02:19 41.99940 -70.78854 9184 ft 301 kts 58°
2026-05-05 02:20 42.01021 -70.76440 9016 ft 299 kts 51°
2026-05-05 02:20 42.02360 -70.74312 8843 ft 297 kts 45°
2026-05-05 02:20 42.03277 -70.72946 8742 ft 297 kts 45°
2026-05-05 02:20 42.05127 -70.70176 8534 ft 296 kts 45°
2026-05-05 02:21 42.06040 -70.68809 8432 ft 296 kts 46°
2026-05-05 02:21 42.07418 -70.66741 8278 ft 297 kts 45°
2026-05-05 02:21 42.08801 -70.64674 8135 ft 297 kts 45°
2026-05-05 02:21 42.10287 -70.62769 7971 ft 293 kts 32°
2026-05-05 02:22 42.12043 -70.61449 7717 ft 287 kts 17°
2026-05-05 02:22 42.13952 -70.60753 7466 ft 283 kts
2026-05-05 02:22 42.15880 -70.60230 7213 ft 282 kts
2026-05-05 02:22 42.17806 -70.59696 6973 ft 282 kts
2026-05-05 02:23 42.19718 -70.59168 6693 ft 280 kts
2026-05-05 02:23 42.21627 -70.58631 6448 ft 279 kts
2026-05-05 02:23 42.23514 -70.58095 6201 ft 277 kts
2026-05-05 02:23 42.25376 -70.57571 5935 ft 276 kts
2026-05-05 02:24 42.27256 -70.57042 5670 ft 276 kts
2026-05-05 02:24 42.29140 -70.56514 5413 ft 276 kts
2026-05-05 02:24 42.31023 -70.56282 5162 ft 269 kts 351°
2026-05-05 02:24 42.32814 -70.56800 5003 ft 261 kts 333°
2026-05-05 02:25 42.34376 -70.57974 4986 ft 256 kts 317°
2026-05-05 02:25 42.35668 -70.59597 4993 ft 253 kts 311°
2026-05-05 02:25 42.36932 -70.61264 4990 ft 254 kts 311°
2026-05-05 02:25 42.38207 -70.62934 4988 ft 255 kts 311°
2026-05-05 02:26 42.39484 -70.64608 4988 ft 257 kts 311°
2026-05-05 02:26 42.40763 -70.66288 4984 ft 256 kts 311°
2026-05-05 02:26 42.42038 -70.67957 4980 ft 253 kts 312°
2026-05-05 02:26 42.43293 -70.69600 4984 ft 254 kts 311°
2026-05-05 02:27 42.44559 -70.71266 4984 ft 254 kts 311°
2026-05-05 02:27 42.45825 -70.72944 4989 ft 254 kts 311°
2026-05-05 02:27 42.47089 -70.74621 4984 ft 251 kts 311°
2026-05-05 02:27 42.48298 -70.76213 4985 ft 235 kts 311°
2026-05-05 02:28 42.49432 -70.77702 5019 ft 222 kts 311°
2026-05-05 02:28 42.50539 -70.79163 5000 ft 222 kts 310°
2026-05-05 02:28 42.51695 -70.80566 4991 ft 226 kts 322°
2026-05-05 02:28 42.53195 -70.81313 4994 ft 237 kts 348°
2026-05-05 02:29 42.54844 -70.81055 5000 ft 248 kts 13°
2026-05-05 02:29 42.56476 -70.80249 4999 ft 249 kts 14°
2026-05-05 02:29 42.58067 -70.79458 4994 ft 240 kts 15°
2026-05-05 02:29 42.59629 -70.78679 4999 ft 239 kts 14°
2026-05-05 02:30 42.61198 -70.77901 4995 ft 240 kts 14°
2026-05-05 02:30 42.62770 -70.77155 4990 ft 237 kts
2026-05-05 02:30 42.64331 -70.77269 4904 ft 218 kts 328°
2026-05-05 02:30 42.65402 -70.78543 4798 ft 197 kts 295°
2026-05-05 02:31 42.65712 -70.80290 4691 ft 189 kts 265°
2026-05-05 02:31 42.65280 -70.81947 4561 ft 190 kts 237°
2026-05-05 02:31 42.64311 -70.83197 4438 ft 193 kts 224°
2026-05-05 02:31 42.63290 -70.84361 4309 ft 191 kts 224°
2026-05-05 02:32 42.62274 -70.85519 4178 ft 191 kts 224°
2026-05-05 02:32 42.61258 -70.86681 4085 ft 191 kts 224°
2026-05-05 02:32 42.60246 -70.87838 3996 ft 189 kts 224°
2026-05-05 02:32 42.59251 -70.88980 4000 ft 183 kts 224°
2026-05-05 02:33 42.58195 -70.89901 3996 ft 182 kts 209°
2026-05-05 02:33 42.57029 -70.90519 3972 ft 182 kts 206°
2026-05-05 02:33 42.55824 -70.91115 3811 ft 181 kts 206°
2026-05-05 02:33 42.54654 -70.91687 3592 ft 180 kts 205°
2026-05-05 02:34 42.53466 -70.92266 3372 ft 179 kts 205°
2026-05-05 02:34 42.52298 -70.92835 3133 ft 178 kts 205°
2026-05-05 02:34 42.51152 -70.93392 2899 ft 177 kts 205°
2026-05-05 02:34 42.50002 -70.93951 2667 ft 174 kts 206°
2026-05-05 02:35 42.48866 -70.94503 2431 ft 172 kts 205°
2026-05-05 02:35 42.47747 -70.95045 2202 ft 169 kts 205°
2026-05-05 02:35 42.46645 -70.95582 1987 ft 167 kts 205°
2026-05-05 02:35 42.45561 -70.96109 1766 ft 163 kts 206°
2026-05-05 02:36 42.44546 -70.96599 1561 ft 145 kts 206°
2026-05-05 02:36 42.43635 -70.97042 1382 ft 135 kts 206°
2026-05-05 02:36 42.42757 -70.97470 1184 ft 134 kts 204°
2026-05-05 02:36 42.41869 -70.97900 998 ft 137 kts 203°
2026-05-05 02:37 42.40964 -70.98337 796 ft 140 kts 202°
2026-05-05 02:37 42.40050 -70.98794 622 ft 141 kts 202°
2026-05-05 02:37 42.39123 -70.99259 445 ft 141 kts 199°
2026-05-05 02:37 42.38189 -70.99698 220 ft 143 kts 199°
2026-05-05 02:38 42.37263 -71.00143 53 ft 141 kts 199°
2026-05-05 02:38 42.36416 -71.00552 26 ft 105 kts 199°
2026-05-05 02:38 42.35935 -71.00786 27 ft 40 kts 201°
2026-05-05 02:38 42.35813 -71.00883 27 ft 13 kts 257°
2026-05-05 02:39 42.35820 -71.00997 27 ft 12 kts 277°
2026-05-05 02:39 42.35830 -71.01105 25 ft 11 kts 277°
2026-05-05 02:39 42.35840 -71.01208 28 ft 11 kts 277°
2026-05-05 02:39 42.35849 -71.01307 29 ft 10 kts 277°
2026-05-05 02:40 42.35861 -71.01408 28 ft 12 kts 280°
2026-05-05 02:40 42.35877 -71.01525 25 ft 14 kts 281°
2026-05-05 02:40 42.35896 -71.01659 27 ft 15 kts 281°
2026-05-05 02:40 42.35916 -71.01793 29 ft 14 kts 284°
2026-05-05 02:41 42.35960 -71.01914 26 ft 14 kts 300°
2026-05-05 02:41 42.36007 -71.02023 29 ft 13 kts 301°
2026-05-05 02:41 42.36052 -71.02126 27 ft 12 kts 301°
2026-05-05 02:41 42.36095 -71.02222 29 ft 12 kts 301°
2026-05-05 02:42 42.36156 -71.02278 25 ft 11 kts 355°
2026-05-05 02:42 42.36235 -71.02248 26 ft 13 kts 20°
2026-05-05 02:42 42.36320 -71.02260 25 ft 14 kts 304°
2026-05-05 02:42 42.36387 -71.02345 26 ft 9 kts 330°
2026-05-05 02:43 42.36421 -71.02379 30 ft 6 kts 300°
2026-05-05 02:43 42.36426 -71.02426 29 ft 2 kts 275°
2026-05-05 02:43 42.36427 -71.02440 26 ft 1 kts 275°
2026-05-05 02:43 42.36427 -71.02442 26 ft 0 kts 275°